Theta_e
346 347 347 347 347 347 347 345 344 346 349 351 349 346 348 349 348 348 349 351 351 351 351 351 351 350 349 351 350 345 336 334 340 338 339 343 345 344 344 344 344 344 342
346 347 347 347 347 347 347 345 344 346 348 350 350 349 348 349 349 348 350 351 352 351 351 352 351 351 350 352 350 348 341 335 332 331 334 340 344 344 345 345 344 344 341
347 347 346 346 347 347 347 349 350 350 351 351 352 350 350 349 349 348 349 349 351 352 351 352 352 350 351 352 351 349 346 338 335 332 333 335 340 343 343 344 344 344 340
348 348 349 349 349 348 349 352 352 351 351 350 350 352 353 352 351 350 348 350 350 351 349 351 352 352 350 351 351 351 349 343 336 332 332 335 337 339 341 341 341 342 340
348 344 343 338 347 352 351 348 348 347 347 348 352 352 352 352 351 351 352 350 350 350 350 348 349 352 351 350 351 351 350 346 341 335 332 336 338 338 338 340 339 340 338
348 350 343 349 353 351 348 347 344 339 337 340 339 344 353 352 353 352 352 352 351 351 351 351 350 350 352 352 352 353 353 350 346 337 334 335 335 335 337 338 337 335 334
342 342 345 345 349 354 352 339 336 338 337 333 335 336 342 352 353 353 353 352 351 351 351 352 352 351 351 351 351 352 352 352 352 351 343 342 338 337 334 337 337 338 338
345 347 348 348 349 349 345 341 340 340 337 335 335 337 338 339 349 351 354 352 352 352 351 351 353 353 353 350 349 349 350 351 351 351 350 349 347 343 337 334 335 338 336
343 344 345 347 349 345 340 339 339 339 338 334 334 336 337 340 344 350 352 351 352 352 353 353 353 351 347 342 342 347 350 349 349 349 348 347 346 339 338 337 336 334 332
334 336 342 343 343 343 342 341 338 337 333 334 338 339 338 338 343 345 352 351 350 350 351 351 349 348 348 335 335 340 349 349 346 346 344 342 338 346 335 335 335 334 332
331 335 337 338 342 341 340 337 334 332 333 333 335 337 337 336 337 344 348 341 338 342 345 340 341 341 341 337 335 341 345 344 344 344 343 342 343 345 341 337 334 332 333
325 325 327 334 337 343 343 339 336 335 333 331 332 334 335 337 336 342 344 335 338 339 338 345 348 348 348 344 334 337 343 346 346 348 347 343 339 337 336 340 336 335 331
324 325 327 325 326 333 336 337 340 337 337 337 336 335 337 337 338 338 334 335 336 339 348 341 339 348 352 350 350 349 349 348 346 344 343 342 343 343 339 336 335 333 331
323 323 323 325 327 327 327 331 333 337 340 342 341 341 340 343 350 349 345 344 345 347 346 343 341 344 344 343 347 348 346 346 347 345 342 342 340 339 337 336 333 333 331
317 317 317 318 323 327 328 327 330 332 333 335 338 339 340 340 339 337 338 340 340 340 344 348 345 344 343 344 341 342 344 344 341 342 340 339 337 337 334 333 332 329 329
318 318 318 319 320 319 323 327 328 327 332 335 335 335 335 338 338 340 339 341 342 342 341 341 341 341 341 338 337 338 340 341 340 338 338 336 335 334 332 330 328 328 327
318 317 317 318 319 318 319 321 323 325 326 327 329 331 333 334 335 339 341 334 333 339 340 339 340 339 338 337 336 337 337 338 339 336 335 334 333 332 330 326 326 326 327
319 318 318 317 316 317 317 318 320 323 323 325 325 323 323 326 330 326 326 326 330 336 338 339 339 340 339 336 336 335 333 334 335 334 334 334 333 331 327 327 326 326 326
319 318 318 316 317 316 316 318 318 320 322 323 323 323 323 324 324 325 324 328 329 330 333 336 339 337 336 336 336 335 332 332 333 334 333 333 333 331 329 327 327 326 326
320 320 320 319 318 319 319 317 318 320 321 322 323 323 324 323 323 323 323 324 325 328 332 332 333 333 332 334 335 334 332 332 332 332 332 332 331 330 330 327 326 323 322
321 321 322 319 319 320 321 322 322 322 321 323 324 324 322 320 321 320 321 324 323 324 325 327 330 332 333 334 332 333 332 331 330 330 330 329 330 328 328 327 325 324 323
321 322 322 322 322 319 320 321 321 321 321 321 321 323 323 322 323 323 323 323 324 325 326 327 328 328 329 330 331 331 330 330 330 330 329 329 329 328 327 326 324 322 321
320 321 322 323 323 322 321 320 319 320 320 321 322 320 321 320 320 321 324 325 326 327 326 326 325 325 325 327 328 330 330 330 330 330 329 328 328 326 327 326 324 324 322
318 319 321 322 322 320 320 320 321 321 321 321 322 322 322 323 323 323 324 324 325 325 324 324 324 325 325 325 326 326 329 330 330 329 329 329 328 327 327 325 324 323 323
318 319 318 319 320 321 321 320 320 323 321 321 321 321 322 322 322 322 321 321 323 325 324 324 325 325 324 328 329 327 328 330 330 330 329 329 328 327 326 324 322 321 321
319 319 318 318 318 318 319 320 320 320 320 321 321 322 321 321 321 322 322 323 323 322 322 322 322 321 322 325 324 325 326 326 326 328 328 328 327 326 324 322 321 320 319
Wind_Speed
29 30 32 33 37 35 37 36 33 29 27 24 21 17 20 23 26 28 26 25 26 25 23 23 23 20 18 17 15 13 13 13 8 8 11 15 17 17 20 22 21 21 19
16 18 18 21 26 31 35 36 34 33 29 26 25 23 23 24 26 29 29 28 29 30 26 25 25 22 20 18 17 17 16 16 13 13 12 16 18 19 22 24 24 23 22
19 21 23 24 26 30 31 29 29 32 33 30 29 28 26 27 28 27 29 30 32 32 29 28 26 22 23 22 21 19 17 17 17 15 14 14 16 17 19 24 25 25 23
20 20 20 23 25 23 14 10 10 17 30 36 36 37 36 34 32 31 30 32 32 33 31 30 29 26 25 24 23 22 20 19 18 18 16 14 15 16 18 20 23 27 26
20 25 16 12 16 18 15 11 8 2 8 17 28 38 38 35 37 33 30 31 32 31 32 30 30 28 26 26 26 25 25 24 22 21 18 16 15 14 17 21 21 25 27
16 20 16 5 14 23 20 20 22 16 16 19 27 28 37 41 38 39 33 31 33 32 31 30 28 28 28 27 27 27 28 28 29 24 19 17 26 26 23 23 18 14 11
14 17 21 24 28 32 30 29 30 25 22 29 37 32 19 35 39 38 36 34 35 34 32 29 28 28 26 27 29 28 30 30 31 31 28 30 24 32 30 24 25 23 20
5 7 12 17 22 25 28 33 34 37 27 34 27 22 19 27 33 38 37 35 35 35 32 31 31 30 28 27 27 28 29 30 31 33 35 35 34 31 31 33 31 28 19
2 7 17 20 23 24 24 27 30 32 36 29 28 29 17 31 31 38 35 36 35 35 34 30 28 29 27 25 25 29 32 33 27 21 20 22 31 29 29 26 24 18 12
8 7 9 18 19 22 24 23 26 31 30 25 17 9 13 24 41 38 36 35 30 31 28 29 30 31 32 27 29 31 28 31 21 17 17 11 16 35 26 26 28 22 13
19 14 9 10 14 22 25 26 26 24 22 16 17 22 26 33 39 41 29 29 31 28 31 30 28 31 37 36 30 28 25 20 21 22 22 25 19 34 42 42 38 39 28
23 23 21 17 14 12 15 18 21 25 32 32 30 31 36 39 38 36 34 32 30 31 24 25 23 20 28 35 27 22 22 28 27 26 23 27 28 32 37 39 42 42 43
24 24 18 15 15 14 17 16 15 20 23 24 24 26 28 29 25 24 25 25 23 25 22 18 17 18 19 19 19 19 18 18 13 18 20 27 29 28 29 28 34 38 40
17 21 25 19 15 14 15 14 17 15 13 17 19 21 25 28 20 19 21 23 22 22 22 20 18 17 17 17 20 19 14 14 17 19 24 29 24 25 28 31 31 31 30
23 21 21 22 18 14 13 15 16 16 14 14 16 18 18 18 22 21 20 23 24 26 24 22 21 20 20 19 19 18 19 16 13 18 22 21 22 23 26 28 26 24 27
25 25 21 20 22 21 16 17 13 15 14 12 16 19 24 26 27 25 22 26 29 31 24 19 17 17 19 19 17 15 15 17 18 21 23 23 23 24 24 24 26 23 24
20 23 21 19 20 19 19 14 13 13 12 14 13 17 22 25 25 23 24 25 29 25 21 21 21 21 22 20 17 17 19 20 20 21 22 23 24 25 24 22 24 23 20
23 24 18 18 15 17 19 20 19 12 10 14 10 5 5 11 15 12 13 17 12 19 21 23 24 21 21 22 18 18 17 17 18 21 24 23 23 23 22 23 24 25 23
20 18 19 19 20 19 17 15 15 16 17 17 11 4 6 8 7 6 4 5 8 20 29 23 22 21 23 21 18 18 18 19 19 20 23 23 25 26 23 24 23 27 25
21 20 22 22 18 16 13 11 11 13 15 15 17 9 10 14 14 4 11 13 8 26 27 22 19 21 20 19 18 19 15 19 19 22 23 23 25 26 25 24 22 19 23
19 21 23 22 17 16 15 15 14 12 12 12 17 18 8 13 13 17 14 27 19 21 18 20 15 14 15 16 17 17 17 19 22 24 23 23 20 24 27 25 24 27 26
20 21 21 20 20 15 11 15 17 13 10 12 12 13 20 17 20 17 26 27 26 19 14 13 7 7 11 14 16 19 22 23 23 23 22 26 24 24 25 25 25 26 26
21 22 23 22 20 13 8 10 12 12 14 12 13 14 15 19 18 19 15 11 10 8 8 10 12 13 15 16 17 19 20 23 25 24 22 23 27 25 26 27 28 25 25
23 21 21 23 22 18 13 13 14 13 12 8 6 6 7 8 8 9 8 7 9 11 14 16 18 20 21 21 23 23 23 25 21 23 24 24 26 30 29 27 26 27 26
20 19 20 21 21 21 19 19 19 17 15 13 13 11 9 9 9 10 11 12 12 12 12 12 13 16 17 17 19 22 22 24 26 25 24 26 29 29 30 28 27 26 26
21 19 18 20 19 20 20 21 21 23 22 23 19 15 16 14 15 13 8 5 5 7 9 10 11 13 13 15 16 16 18 23 25 25 27 29 30 29 28 28 29 27 27
Wind_Direction
221 225 227 232 234 237 240 244 245 249 253 255 256 251 243 239 237 240 232 228 226 230 230 230 230 233 232 231 227 229 225 223 218 260 254 244 238 227 223 225 225 226 227
215 220 234 248 244 241 245 247 249 248 250 251 249 247 244 241 243 241 241 235 234 230 231 229 233 236 231 228 226 227 227 226 224 235 248 239 236 234 230 229 224 225 228
216 218 221 228 241 247 252 258 260 261 256 253 250 248 251 250 243 239 240 239 240 239 236 234 236 236 237 232 226 227 229 229 230 234 244 240 236 235 227 226 226 226 227
207 216 215 226 234 245 246 263 274 284 275 270 262 256 256 256 253 248 239 237 239 242 241 240 240 239 243 239 229 232 232 230 231 230 234 235 236 237 232 223 221 223 225
225 232 238 254 225 210 198 199 220 338 22 353 300 280 263 255 256 253 248 237 237 239 241 242 240 238 240 239 238 237 232 229 227 231 232 231 225 220 219 228 223 227 226
252 246 253 240 221 215 205 204 224 246 286 305 308 313 278 267 253 251 247 240 236 238 237 240 240 239 238 239 242 244 244 235 231 222 221 220 231 235 235 229 209 204 224
252 245 247 238 223 225 229 228 232 249 267 291 272 265 286 279 265 247 244 236 234 234 235 238 239 240 240 241 242 245 249 250 251 253 238 242 236 249 242 230 218 217 221
272 278 258 251 245 237 234 243 251 237 247 245 236 236 259 281 278 259 245 234 234 236 234 234 238 237 234 236 238 237 236 241 245 248 253 261 263 260 250 245 245 243 234
48 215 218 222 223 221 225 235 245 256 253 255 253 242 260 287 280 270 248 230 234 236 234 230 226 227 231 230 235 242 242 239 240 247 258 276 270 263 263 244 234 212 225
5 324 228 208 212 223 231 242 253 247 242 222 217 204 232 270 261 273 251 232 228 231 233 228 230 233 237 236 234 236 224 231 232 227 238 244 293 274 249 249 240 223 229
1 353 335 293 267 253 252 246 235 236 209 215 231 239 238 256 269 265 232 232 235 229 230 236 241 242 250 256 246 230 240 252 234 239 240 242 227 238 237 226 218 225 220
353 358 358 343 318 297 282 268 255 239 238 253 262 263 263 264 255 249 239 231 234 233 228 245 251 261 257 256 240 239 260 263 255 242 223 230 219 215 223 228 225 225 225
337 338 349 346 344 324 306 304 271 241 236 248 250 256 256 257 247 225 235 229 222 232 242 255 264 261 258 261 256 265 272 259 258 220 218 234 238 241 236 229 225 223 225
333 327 327 339 334 324 319 312 285 267 248 259 261 253 254 253 238 233 235 234 240 234 238 240 245 256 266 273 280 284 274 265 255 233 227 239 238 234 231 227 216 211 212
338 336 327 320 324 318 306 304 298 291 281 267 269 272 264 273 264 256 247 231 227 228 228 229 237 243 252 257 261 272 284 288 267 246 238 232 229 231 229 226 218 207 209
339 337 327 321 318 319 306 304 299 299 296 278 271 270 272 269 273 272 249 240 236 232 217 218 222 225 233 245 254 259 259 261 255 239 233 226 219 221 226 222 213 212 212
329 331 322 311 312 313 309 289 274 281 278 280 275 261 255 264 259 259 242 227 226 214 210 213 219 220 229 233 236 239 247 252 253 243 227 221 218 218 211 211 210 212 216
324 332 325 323 307 300 296 296 294 286 282 280 257 253 254 255 265 250 224 215 211 209 220 209 215 210 223 230 225 232 243 245 233 233 227 226 223 215 204 206 206 205 211
333 328 330 321 320 310 298 287 279 273 274 275 265 180 112 113 57 8 244 215 254 211 234 221 211 224 231 235 237 241 234 231 224 228 236 234 226 221 215 216 215 213 210
345 330 325 321 317 310 302 291 284 270 257 248 253 223 180 147 128 8 311 292 253 247 241 232 218 226 233 234 237 235 234 235 233 239 242 242 234 224 222 219 212 212 213
338 335 341 327 312 307 309 304 309 287 268 255 245 241 213 168 171 162 193 257 236 240 246 246 228 219 227 232 235 231 231 232 235 242 242 240 230 224 226 223 218 219 214
357 342 333 315 317 307 311 320 325 325 302 283 286 256 218 216 223 205 208 217 237 236 239 249 263 263 250 242 235 231 230 230 233 233 235 243 237 234 235 227 221 217 213
1 349 349 343 345 321 331 343 344 344 339 323 330 302 244 244 238 238 220 219 233 235 251 268 277 280 278 274 264 241 232 232 236 229 230 233 234 230 227 222 219 215 212
15 4 356 360 3 10 4 358 356 349 348 354 3 346 324 300 277 258 269 285 280 281 283 283 283 281 280 279 274 272 254 249 246 242 238 233 233 233 230 225 221 217 213
17 12 13 16 11 15 17 20 15 11 6 355 341 333 317 291 280 290 295 287 278 277 279 283 290 292 290 285 268 265 266 255 249 244 240 244 240 235 233 223 219 217 213
19 14 10 13 13 18 21 18 21 21 21 17 12 5 354 325 289 292 304 302 316 320 328 331 327 307 294 285 280 272 266 261 256 249 245 243 236 231 228 223 218 213 212